Location: Fennell Observatory
(35.2597°N, 89.5125°W)
Time: 17:31:59
(UTC-05:00)

Daily predictions for brighter satellites

Satellite Brightness Start Highest point End
(mag) Time Altitude Azimuth Time Altitude Azimuth Time Altitude Azimuth
Spot 2 Rocket 4.3 19:59:56 10° SE 20:04:29 33° ENE 20:09:01 10° N
Atlas Centaur 2 3.2 19:59:22 10° WSW 20:07:40 61° S 20:14:52 10° E
Cosmos 2026 Rocket 4.1 20:02:30 10° S 20:08:43 65° E 20:15:02 10° NNE
H-2A R/B 2.8 20:07:03 10° SSE 20:10:52 87° WSW 20:14:40 10° NNW
ALOS 3.6 20:10:24 10° S 20:14:49 43° W 20:19:16 10° NNW
ERBS 3.9 20:12:12 10° WSW 20:15:29 39° NW 20:18:47 10° NNE
CZ-4C R/B 3.4 20:08:11 10° NW 20:15:33 67° WSW 20:23:31 10° SSE
Cosmos 1655 Rocket 4.1 20:12:55 10° S 20:19:01 59° E 20:25:13 10° NNE
Cosmos 1812 3.3 20:19:20 10° NNW 20:23:09 61° W 20:26:58 10° S
Cosmos 2297 Rocket 4.3 20:24:10 10° NW 20:28:52 27° WSW 20:33:32 10° SSW
BREEZE M DEB (TANK) 4.4 20:16:23 10° SSW 20:30:27 40° SSE 20:34:36 10° ENE
USA 186 2.0 20:28:41 10° SSE 20:31:56 55° ENE 20:35:15 10° N
Cosmos 1602 3.7 20:28:29 10° S 20:32:15 57° E 20:36:02 10° NNE
Okean 2 Rocket 3.4 20:27:52 10° SSW 20:32:20 71° W 20:36:51 10° N
Meteor 1-11 Rocket 4.1 20:27:11 10° SSE 20:32:44 46° E 20:38:12 10° NNE
GPS 2-05 Rocket1 2.7 20:29:39 10° W 20:33:03 83° N 20:35:41 15° E
Envisat 3.3 20:28:36 10° SSE 20:33:28 49° ENE 20:38:22 10° N
NOSS 2-3 (D) 3.9 20:34:39 10° S 20:39:02 48° ESE 20:43:55 10° NE
USA 267 3.7 20:33:48 10° SSE 20:40:14 60° SW 20:46:43 10° NW
Resurs 1-3 3.8 20:45:20 10° S 20:49:42 76° WSW 20:54:06 10° NNW
Cosmos 2322 Rocket 2.1 20:44:46 10° SSW 20:50:27 76° ESE 20:56:09 10° NNE
Cosmos 2263 Rocket 3.1 20:48:09 10° N 20:53:12 32° ENE 20:55:52 22° ESE
Delta 2 Rocket 3.8 20:51:47 10° SW 20:55:40 43° SSE 20:57:46 26° ESE
Cosmos 1939 Rocket 2.8 20:56:10 21° SSE 20:58:40 62° ENE 21:02:35 10° N
Cosmos 44 Rocket 3.4 20:54:11 10° NNW 20:58:57 74° WSW 21:02:28 18° SSE
SL-16 R/B 2.2 20:55:30 10° SSW 21:01:10 87° WNW 21:06:52 10° NNE
Cosmos 1536 2.8 21:01:09 12° S 21:04:52 65° E 21:08:55 10° NNE
ATLAS 2AS CENTAUR R/B 3.0 20:57:33 10° SSW 21:04:57 64° ESE 21:12:54 10° NE
Meteor 1-19 Rocket 4.3 21:01:43 10° N 21:07:37 89° E 21:12:56 13° S
YAOGAN 6 2.6 21:08:45 43° SE 21:09:36 57° ENE 21:13:05 10° N
Lacrosse 5 rocket 1.3 21:06:23 10° NW 21:10:05 68° SW 21:11:31 35° SSE
Cosmos 2322 4.3 21:08:48 27° SE 21:10:33 33° ESE 21:15:32 10° NE
Cosmos 1850 Rocket 4.1 21:08:06 10° N 21:13:23 62° ENE 21:15:44 32° SE
Cosmos 1331 Rocket 4.4 21:14:52 34° SE 21:16:00 38° E 21:20:48 10° NE
NOSS 2-3 (E) 4.1 21:11:28 10° SW 21:16:02 69° WNW 21:21:15 10° NNE
Okean 1 Rocket 3.0 21:15:27 31° SSE 21:17:23 61° E 21:21:42 10° NNE
Resurs 01 Rocket 3.5 21:17:03 10° SSW 21:20:55 29° W 21:24:49 10° NW
Helios 1B rocket 2.3 21:17:00 10° NNE 21:21:07 77° ESE 21:23:21 26° S
S3M 4.3 21:15:13 10° NNW 21:21:27 69° W 21:27:44 10° S
Cosmos 1300 Rocket 3.7 21:17:56 10° SSW 21:22:13 73° W 21:26:32 10° N
Cosmos 1553 Rocket 4.4 21:17:49 10° NNW 21:23:51 59° W 21:29:47 10° S
Cosmos 1607 4.4 21:18:10 10° NNW 21:24:23 47° NE 21:26:39 34° ESE
Cosmos 2360 Rocket 2.2 21:19:00 10° S 21:24:29 55° ESE 21:29:59 10° NNE
Cosmos 2266 Rocket 3.9 21:20:13 10° S 21:26:17 88° W 21:32:20 10° N
Tiangong 1 2.8 21:24:16 10° NW 21:26:22 22° N 21:26:22 22° N
Okean 1-7 Rocket 4.3 21:22:36 10° NNE 21:26:34 37° ENE 21:26:34 37° ENE
Meteor 1-5 Rocket 4.0 21:24:35 11° S 21:29:50 87° E 21:35:09 10° N
Cosmos 2315 Rocket 4.2 21:23:57 10° N 21:30:01 51° E 21:31:52 39° SE
Cosmos 1025 Rocket 3.5 21:29:15 10° N 21:32:56 43° ENE 21:32:56 43° ENE
Nadezhda 2 Rocket 4.4 21:31:03 33° SSE 21:33:48 60° E 21:39:54 10° NNE
SeaSat 1 4.2 21:30:13 10° N 21:34:35 33° WNW 21:38:57 10° WSW
SPOT 5 3.9 21:35:22 29° ENE 21:35:22 29° ENE 21:39:06 10° NNE
Cosmos 220 Rocket 4.3 21:31:52 10° N 21:35:52 48° ENE 21:35:52 48° ENE
Lacrosse 5 2.2 21:35:54 10° SW 21:40:56 66° NW 21:46:00 10° NE
Meteor 2-4 Rocket 4.1 21:37:05 10° NNW 21:42:36 63° W 21:45:55 25° SSW
NOAA 11 4.1 21:41:12 50° SSE 21:42:41 76° ENE 21:48:11 10° N
USA 245 4.4 21:47:45 46° ENE 21:47:45 46° ENE 21:51:57 10° N
DELTA 2 R/B (1) 3.9 21:42:32 10° WNW 21:47:58 52° SSW 21:48:44 48° S
Meteosat 1 Rocket2 4.5 21:51:08 10° WSW 21:56:51 48° S 21:57:15 48° SSE
Atlas Centaur 2 2.8 21:49:26 10° W 21:57:05 52° SSW 21:58:01 49° SSE
Okean 2 4.1 21:53:26 10° N 21:56:27 47° N 21:56:27 47° N
Helios 1A 4.2 21:58:19 33° SW 21:59:13 38° W 22:03:11 10° NNW
Cosmos 1932 4.3 21:57:35 10° NNW 22:04:05 80° ENE 22:04:55 68° SE
USA 238 DEB 4.2 21:58:41 10° NNW 22:05:27 45° NE 22:06:30 42° ENE
USA 238 4.2 21:58:48 10° NNW 22:05:33 44° NE 22:06:37 42° ENE
ERS-1 Rocket 3.0 22:06:24 66° SW 22:06:45 69° WSW 22:11:46 10° NNW
MetOp-A 4.0 22:06:28 74° SSW 22:06:54 80° WSW 22:12:17 10° NNW
H-2A R/B 2.5 22:10:30 47° NNE 22:10:30 47° NNE 22:14:26 10° N
ATLAS 3B R/B 2.6 22:18:43 10° NNW 22:25:20 68° NE 22:25:20 68° NE
Terra 3.7 22:29:05 22° NNE 22:29:05 22° NNE 22:31:08 10° N
ARGOS 3.4 22:27:17 63° W 22:27:17 63° W 22:32:22 10° NNW
Cosmos 1241 Rocket 4.5 22:29:18 80° NE 22:29:18 80° NE 22:35:27 10° NNE
Cosmos 2278 Rocket 4.2 22:32:36 10° NNE 22:35:15 18° NE 22:35:15 18° NE
Cosmos 2263 Rocket 3.5 22:32:05 10° NW 22:37:02 31° WSW 22:37:36 30° WSW
Cosmos 1844 Rocket 3.6 22:39:42 10° NNW 22:43:39 42° NNE 22:43:39 42° NNE
Nadezhda 1 Rocket 4.4 22:43:19 10° N 22:48:14 55° NNE 22:48:14 55° NNE
Cosmos 2219 Rocket 3.8 22:57:52 25° NNE 22:57:52 25° NNE 23:00:10 10° NNE
COSMOS 2428 3.7 23:04:15 43° NW 23:04:15 43° NW 23:08:48 10° N
CENTAUR R/B 4.4 23:10:05 10° N 23:16:32 26° NE 23:17:28 26° NE
Cosmos 2333 Rocket 4.0 23:20:17 24° NNE 23:20:17 24° NNE 23:22:25 10° NNE
Cosmos 2237 Rocket 4.3 23:42:17 20° NNE 23:42:17 20° NNE 23:43:52 10° NNE
